Location: Amon Carter Post Office
(32.8281°N, 97.0484°W)
Time: 20:32:23
(UTC+00:00)

SL-4 R/B - Pass Details

Date: 11 July 2022
Orbit: 425 x 653 km, 51.6° (Epoch: 08 August)

Event Time Altitude Azimuth Distance (km) Brightness Sun altitude
Rises 10:31:33 0° 315° (NW) 2,586 5.4 -11.1°
Reaches altitude 10° 10:33:40 10° 317° (NW) 1,738 4.5 -10.7°
Maximum altitude 10:37:37 76° 44° (NE) 563 2.2 -10.0°
Drops below altitude 10° 10:41:53 10° 130° (SE) 1,874 4.9 -9.3°
Sets 10:44:14 0° 132° (SE) 2,810 5.8 -8.9°
